Regional Weather Roundup
Issued by NWS Newport/Morehead, NC

Current Version | Previous Version | Graphics & Text | Print | Product List | Glossary Off
Versions: 1 2 3 4 5 6 7 8 9 10 11 12 13 14 15 16 17 18 19 20 21 22 23 24 25 26 27 28 29 30 31 32 33 34 35 36 37 38 39 40 41 42 43 44 45 46 47 48

000
ASUS42 KMHX 202110
RWRMHX
WEATHER ROUNDUP FOR EASTERN NORTH CAROLINA
NATIONAL WEATHER SERVICE NEWPORT/MOREHEAD CITY NC
500 PM EDT SUN APR 20 2014

NOTE: "FAIR" INDICATES FEW OR NO CLOUDS BELOW 12,000 FEET
WITH NO SIGNIFICANT WEATHER AND/OR OBSTRUCTIONS TO VISIBILITY

NCZ015>017-031-032-045>047-102-103-202200-
NORTH COAST

CITY           SKY/WX    TMP DP  RH WIND       PRES   REMARKS
EDENTON        CLOUDY    53  49  86 NE14G25   30.21F
ELIZABETH CITY LGT RAIN  50  46  86 N23G32    30.23S FOG
KITTY HAWK     RAIN      48  47  97 N14G26    30.17S
MANTEO         LGT RAIN  49  48  97 NE25G37   30.15R

$$

NCZ045>047-081-094-103-104-202200-
CENTRAL COAST

CITY           SKY/WX    TMP DP  RH WIND       PRES   REMARKS
FRISCO         LGT RAIN  53  53 100 NE16G32   30.07R FOG
SWANQUARTER      N/A     54 N/A N/A N24G37    30.12R

$$

NCZ095-097-098-100-101-202200-
SOUTHERN COAST

CITY           SKY/WX    TMP DP  RH WIND       PRES   REMARKS
BEAUFORT       LGT RAIN  54  53  97 N23G39    30.08R
CEDAR ISLAND     N/A     55 N/A N/A N32G43    30.12S
JACKSONVILLE   LGT RAIN  55  55 100 N26G36    30.10S
NEWPORT          N/A     54  54 100 VRB15G24    N/A
PINEY ISLAND   LGT RAIN  56 N/A N/A N36G48    30.08R
WILMINGTON     CLOUDY    59  54  83 N25G47    30.07S


$$

NCZ011>013-027>030-043-044-078>080-089-090>093-098-202200-
COASTAL PLAIN

CITY           SKY/WX    TMP DP  RH WIND       PRES   REMARKS
AHOSKIE        PTSUNNY   59  35  40 NE17G30   30.24S
CLINTON        CLOUDY    61  52  71 NE20G25   30.16S
ELIZABETHTOWN  CLOUDY    62  52  69 N6        30.12F
GOLDSBORO      PTSUNNY   59  48  67 NE13G30   30.16S
GREENVILLE     CLOUDY    59  46  63 NE20G30   30.21R
HAVELOCK       CLOUDY    54  51  90 N25G38    30.11R
KENANSVILLE    CLOUDY    58  49  73 NE15G26   30.16S
KINSTON        CLOUDY    57  50  77 NE21G29   30.18S
NEW BERN       LGT RAIN  55  52  89 N20G28    30.14S FOG
RICHLANDS      CLOUDY    55  55 100 N20G28    30.13S
ROANOKE RAPIDS NOT AVBL
ROCKY MOUNT    CLOUDY    62  43  49 NE17G26   30.21F
WASHINGTON     CLOUDY    53  49  85 NE17G23   30.19S
WHITEVILLE     CLOUDY    62  53  72 N10G24    30.09F

$$

AMZ130-135-150-152-154-156-158-170-250-252-270-ANZ085-086-088-633-658-670-202200-
MARINE OBSERVATIONS

STATION/POSITION TIME  TEMP    WIND        PRES    WAVE   SWELL
                       AIR SEA DIR/SP/G            HT/PER HT/PER
                 (UTC) (F)     (DEG/KT/KT) (MB)    (FT/S) (FT/S)
CHESAPEAKE LIGHT 2000   47      30/ 30/ 32 1024.7
BUOY 44014       2100   50 49   20/ 23/ 29 1021.7   14/11  11/11
DUCK             2100   48 49   20/ 33/ 39 1021.2
2E DUCK          2100      48                N/A    12/11   7/11
OREGON INLET     2100   49 51  360/ 21/ 27 1020.4
BUOY 44095       2100      48                N/A    15/11  10/11
HATTERAS CG      2100   54 55   10/ 20/ 29 1018.1
DIAMOND BUOY     2100   69 75   60/ 27/ 33 1015.4   18/11  13/11
CAPE LOOKOUT     2000   56     360/ 26/ 34 1016.6
BEAUFORT LAB     2100   55 57   10/ 24/ 34 1017.6
30 SE NEW RIVER  2100   59 65   20/ 35/ 43 1014.5   11/11   5/11
5 SE WRIGHTSVILL 2000   58 58   20/ 27/ 31 1016.7
FRYING PAN BUOY  2100   61 68   20/ 35/ 43 1013.0   11/ 7   3/10
BUOY 41001       NOT AVBL
BUOY 41002       NOT AVBL
BUOY 41004       NOT AVBL

$$



USA.gov is the U.S. government's official web portal to all federal, state and local government web resources and services.